Location: Krasnoyarskiy Pitomnik
(51.1333°N, 71.6167°E)
Time: 21:40:24
(UTC+00:00)

A-11 Canister half - Pass Details

Date: 27 April 2024
Orbit: 1525 x 1683 km, 47.3° (Epoch: 19 May)

Event Time Altitude Azimuth Distance (km) Brightness Sun altitude
Rises 00:08:11 0° 236° (SW) 4,839 11.0 1.3°
Reaches altitude 10° 00:11:20 10° 232° (SW) 3,874 10.5 1.7°
Maximum altitude 00:20:59 58° 157° (SSE) 1,899 9.7 3.2°
Drops below altitude 10° 00:30:49 10° 82° (E) 3,950 13.5 4.6°
Sets 00:34:04 0° 79° (E) 4,940 14.4 5.1°
